Regional Weather Roundup
Issued by NWS

Home | Current Version | Previous Version | Graphics & Text | Print | Product List | Glossary On
Versions: 1 2 3 4 5 6 7 8 9 10 11 12 13 14 15 16 17 18 19 20 21 22 23 24 25 26 27 28 29 30 31 32 33 34 35 36 37 38 39 40 41 42 43 44 45 46 47 48 49 50
604
ASUS44 KJAN 192103
RWRMS

MISSISSIPPI HOURLY WEATHER ROUNDUP
NATIONAL WEATHER SERVICE JACKSON MS
400 PM CDT TUE AUG 19 2014

NOTE: "FAIR: INDICATES FEW OR NO CLOUDS BELOW 12,000 FEET WITH NO
SIGNIFICANT WEATHER AND/OR OBSTRUCTIONS TO VISIBILITY.

MSZ001>002-007>008-010>013-018>021-025>028-034>036-192200-
NORTHWEST MISSISSIPPI

CITY           SKY/WX    TMP DP  RH WIND       PRES   REMARKS
CLARKSDALE     FAIR      91  77  62 SW5       29.87F HX 105
CLEVELAND      FAIR      92  80  67 W6        29.87F HX 110
GREENWOOD      MOSUNNY   93  75  55 CALM      29.88F HX 104
GREENVILLE       N/A    N/A N/A N/A MISG      29.88F
GRENADA        FAIR      91  73  55 W5        29.88F HX 100
OLIVE BRANCH   PTSUNNY   90  75  62 S10       29.86F HX 100
OXFORD         FAIR      88  68  51 W6        29.90F HX  91
TUNICA         PTCLDY    91  77  62 S10       29.86F HX 105
$$

MSZ003>006-009-014>017-022>024-029>033-037>039-192200-
NORTHEAST MISSISSIPPI

CITY           SKY/WX    TMP DP  RH WIND       PRES   REMARKS
BELMONT        FAIR      88  74  62 SW8       29.90F HX  96
COLUMBUS AFB   SUNNY     93  69  45 NW13      29.89F HX  97
CORINTH        FAIR      91  72  52 SW8       29.86F HX  98
GOLDN TRIANGLE MOSUNNY   95  70  43 NW12G18   29.90F HX 101
STARKVILLE     FAIR      91  70  49 NW6       29.89F HX  97
TUPELO         SUNNY     93  68  43 VRB7      29.88F HX  97
$$

MSZ040-058-192200-
CENTRAL MISSISSIPPI

CITY           SKY/WX    TMP DP  RH WIND       PRES   REMARKS
JACKSON INTL   MOSUNNY   92  74  55 SW7       29.92F HX 101
JACKSON HAWKNS PTSUNNY   90  74  59 W8        29.92F HX  99
MERIDIAN KEY   PTSUNNY   83  64  52 N8        29.92S
MERIDIAN NAS   TSTM      75  67  76 SW9       29.92S
RAYMOND        FAIR      91  86  84 W7        29.92F HX 122
VICKSBURG      PTSUNNY   91  74  57 VRB7      29.91F HX 100
$$

MSZ059>079-192200-
SOUTH MISSISSIPPI

CITY           SKY/WX    TMP DP  RH WIND       PRES   REMARKS
BROOKHAVEN     FAIR      91  73  55 W9        29.96F HX 100
COLUMBIA       MOCLDY    93  75  55 MISG      29.91F HX 104
HATTIESBURG    MOSUNNY   94  70  45 VRB5      29.92F HX 100
MCCOMB         MOSUNNY   93  68  43 SW9       29.94F HX  97
NATCHEZ        MOSUNNY   90  75  62 W6        29.94S HX 100
PINE BELT      MOSUNNY   93  72  49 SW6       29.95S HX 100
$$

MSZ080>082-192200-
COASTAL MISSISSIPPI

CITY           SKY/WX    TMP DP  RH WIND       PRES   REMARKS
BAY ST LOUIS   MOSUNNY  N/A N/A N/A SW9       29.93F
BILOXI         MOSUNNY   90  77  65 SW15      29.94F HX 104
PASCAGOULA     MOSUNNY   90  74  59 SW12      29.94F HX  99
GULFPORT       MOSUNNY   91  75  59 S13G20    29.93F HX 101
$$



USA.gov is the U.S. government's official web portal to all federal, state and local government web resources and services.